Location: Newark
(45.8667°N, 9.7333°E)
Time: 15:23:23
(UTC+00:00)

Transit 4A - Pass Details

Date: 27 January 2020
Orbit: 872 x 973 km, 66.8° (Epoch: 26 February)

Event Time Altitude Azimuth Distance (km) Brightness Sun altitude
Rises 15:22:41 0° 317° (NW) 3,469 11.0 7.5°
Reaches altitude 10° 15:25:33 10° 305° (NW) 2,528 10.5 7.1°
Maximum altitude 15:30:10 25° 252° (WSW) 1,703 10.8 6.4°
Drops below altitude 10° 15:34:49 10° 199° (SSW) 2,539 11.2 5.7°
Sets 15:37:43 0° 187° (S) 3,488 11.6 5.3°
